This demonstration page uses our WeatherBlox Daily Observations layout. Learn more.

Left ArrowRight Arrow

39.95238, -75.16362

Hourly Observations for May 30, 2016

Temp ( °F °C ) Dew Point ( °F °C ) Humidity (%) Winds ( mph kmh ) Pressure ( in mb ) Visibility ( mi km ) Precip ( " mm )
12:00 am 00:00 Cloudy with Light Rain 72 22.2 67 19.4 84 84 W 5 7 30.06 1018 7 11 0.00 0.03
12:18 am 00:18 Cloudy with Light Rain 72 22 68 20 88 88 W 5 7 30.06 1018 6 10 0.00 0.00
12:38 am 00:38 Cloudy with Light Rain 72 22.2 68 20 87 87 NW 6 9 30.06 1018 7 11 0.06 1.52
12:49 am 00:49 Cloudy with Light Rain 72 22 68 20 88 88 NW 3 6 30.03 1017 5 8 0.06 1.52
12:54 am 00:54 Cloudy with Light Rain 71 21.7 68 20 90 90 Calm 30.04 1017 5 8 0.06 1.52
1:03 am 01:03 Cloudy with Rain 72 22 68 20 88 88 N 3 6 30.03 1017 3 5 0.00 0.00
1:06 am 01:06 Cloudy with Rain 70 21.1 68 20 93 93 N 3 6 30.03 1017 2 3 0.05 1.27
1:16 am 01:16 Cloudy with Light Rain 70 21.1 68 20 93 93 Calm 30.03 1017 4 6 0.09 2.29
1:30 am 01:30 Cloudy with Light Rain 70 21.1 67 19.4 90 90 SE 3 6 30.03 1017 6 10 0.13 3.30
1:41 am 01:41 Cloudy with Light Rain 70 21.1 68 20 93 93 Calm 30.03 1017 7 11 0.18 4.57
1:54 am 01:54 Cloudy with Light Rain 70 21.1 68 20 93 93 E 3 6 30.01 1016 8 13 0.20 5.08
2:10 am 02:10 Cloudy with Light Rain 70 21.1 68 20 93 93 Calm 30.00 1016 6 10 0.00 0.03
2:24 am 02:24 Cloudy with Light Rain 70 21.1 67 19.4 90 90 SSE 5 7 30.00 1016 4 6 0.02 0.51
2:45 am 02:45 Cloudy with Light Rain 70 21.1 68 20 93 93 Calm 30.00 1016 4 6 0.11 2.79
2:54 am 02:54 Cloudy with Light Rain 70 21.1 68 20 93 93 Calm 30.01 1016 4 6 0.11 2.79
3:06 am 03:06 Cloudy with Heavy Rain 70 21.1 68 20 93 93 NNW 6 9 30.00 1016 1 2 0.11 2.79
3:16 am 03:16 Cloudy with Rain 70 21.1 68 20 93 93 N 5 7 30.00 1016 3 4 0.49 12.45
3:32 am 03:32 Cloudy with Light Rain 70 21.1 68 20 93 93 Calm 30.00 1016 4 6 0.57 14.48
3:42 am 03:42 Cloudy with Rain 70 21.1 69 20.6 97 97 Calm 30.00 1016 3 5 0.60 15.24
3:45 am 03:45 Cloudy with Light Rain 70 21.1 69 20.6 97 97 Calm 30.00 1016 5 8 0.61 15.49
3:54 am 03:54 Cloudy with Light Rain 70 21.1 68 20 93 93 Calm 29.99 1016 5 8 0.62 15.75
4:04 am 04:04 Cloudy with Light Rain 71 21.7 68 20 90 90 Calm 30.00 1016 5 8 0.00 0.03
4:15 am 04:15 Cloudy with Light Rain 71 21.7 69 20.6 94 94 Calm 30.00 1016 3 5 0.01 0.25
4:44 am 04:44 Cloudy with Mist and Fog 72 22 70 21 94 94 Calm 30.00 1016 5 8 0.00 0.00
4:48 am 04:48 Cloudy 72 22 70 21 94 94 Calm 30.00 1016 7 11 0.02 0.51
4:54 am 04:54 Cloudy 71 21.7 69 20.6 94 94 Calm 29.99 1016 8 13 0.02 0.51
5:00 am 05:00 Cloudy 71 21.7 69 20.6 94 94 Calm 30.00 1016 8 13 0.00 0.00
5:47 am 05:47 Cloudy 71 21.7 68 20 90 90 WSW 5 7 30.00 1016 10 16 0.00 0.03
5:54 am 05:54 Cloudy 71 21.7 68 20 90 90 WSW 5 7 30.00 1016 10 16 0.00 0.03
6:14 am 06:14 Mostly Cloudy 72 22 70 21 94 94 W 3 6 30.00 1016 10 16 0.00 0.00
6:50 am 06:50 Cloudy 72 22 68 20 88 88 W 6 9 30.00 1016 10 16 0.00 0.00
6:54 am 06:54 Cloudy 72 22.2 68 20 87 87 W 6 9 30.00 1016 10 16 0.00 0.00
7:03 am 07:03 Cloudy 72 22.2 69 20.6 91 91 WNW 5 7 30.00 1016 10 16 0.00 0.00
7:30 am 07:30 Cloudy 71 21.7 68 20 90 90 NW 6 9 30.00 1016 10 16 0.00 0.00
7:54 am 07:54 Cloudy 71 21.7 68 20 90 90 NNW 6 9 30.01 1016 10 16 0.00 0.00
8:15 am 08:15 Cloudy 71 21.7 67 19.4 87 87 VRB 7 11 30.03 1017 10 16 0.00 0.00
8:42 am 08:42 Cloudy 71 21.7 67 19.4 87 87 NW 8 13 30.03 1017 10 16 0.00 0.00
8:54 am 08:54 Cloudy 71 21.7 67 19.4 87 87 NNW 8 13 30.02 1017 10 16 0.00 0.00
9:54 am 09:54 Cloudy 73 22.8 66 18.9 79 79 Calm 30.03 1017 10 16 0.00 0.00
10:05 am 10:05 Cloudy 74 23.3 67 19.4 79 79 Calm 30.03 1017 10 16 0.00 0.00
10:54 am 10:54 Cloudy 75 23.9 68 20 79 79 S 6 9 30.01 1016 10 16 0.00 0.00
11:54 am 11:54 Mostly Cloudy 77 25 68 20 74 74 S 6 9 29.98 1015 10 16 0.00 0.00
12:54 pm 12:54 Mostly Cloudy 77 25 67 19.4 71 71 WSW 8 13 29.98 1015 10 16 0.00 0.00
1:54 pm 13:54 Mostly Cloudy 78 25.6 66 18.9 67 67 SW 6 9 29.98 1015 10 16 0.00 0.00
2:54 pm 14:54 Mostly Cloudy 78 25.6 65 18.3 64 64 S 9 15 29.96 1015 10 16 0.00 0.00
3:54 pm 15:54 Mostly Cloudy 78 25.6 66 18.9 67 67 S 9 15 29.95 1014 10 16 0.00 0.00
4:54 pm 16:54 Mostly Cloudy 77 25 67 19.4 71 71 S 10 17 29.95 1014 10 16 0.00 0.00
5:54 pm 17:54 Cloudy 75 23.9 68 20 79 79 S 7 11 29.95 1014 10 16 0.00 0.00
6:54 pm 18:54 Cloudy 74 23.3 68 20 82 82 S 8 13 29.96 1014 10 16 0.00 0.00
7:15 pm 19:15 Cloudy 73 22.8 68 20 84 84 S 9 15 29.94 1014 10 16 0.00 0.00
7:54 pm 19:54 Cloudy 73 22.8 68 20 84 84 S 10 17 29.97 1015 10 16 0.00 0.00
8:39 pm 20:39 Cloudy 73 22.8 68 20 84 84 S 9 15 29.97 1015 10 16 0.00 0.00
8:54 pm 20:54 Cloudy 73 22.8 68 20 84 84 S 8 13 29.98 1015 10 16 0.00 0.00
9:12 pm 21:12 Cloudy 73 22.8 68 20 84 84 S 7 11 29.97 1015 10 16 0.00 0.00
9:40 pm 21:40 Cloudy 72 22.2 68 20 87 87 S 7 11 29.97 1015 10 16 0.00 0.00
9:54 pm 21:54 Cloudy 72 22.2 68 20 87 87 S 9 15 29.98 1015 10 16 0.00 0.00
10:46 pm 22:46 Cloudy 72 22 68 20 88 88 S 10 17 29.97 1015 10 16 0.00 0.00
10:54 pm 22:54 Cloudy 72 22.2 68 20 87 87 S 9 15 29.98 1015 10 16 0.00 0.00
11:44 pm 23:44 Cloudy 71 21.7 67 19.4 87 87 S 8 13 29.97 1015 10 16 0.00 0.00
11:54 pm 23:54 Cloudy 71 21.7 67 19.4 87 87 S 10 17 29.97 1015 10 16 0.00 0.00

Powered by AerisWeather